Content
SEND FEEDBACK

Daily
Averages
Monthly
Summary
United States of America

COTTON, MINNESOTA


Home > North America > United States > Minnesota
Elevation: 1390 feet     Latitude: 47 11N     Longitude: 092 19W

WEATHER
 
SELECT A DAY
Number of Records: 461,286;   Date Range: 1/1/95 - 9/30/14
 
SHARE

PRINT THIS DATA

[ ← Previous Day ]
WEATHER ALMANAC - FEBRUARY 13, 2013
[ Next Day → ]
[ °C ]   °F
Weather ElementAverageHighLow
Temperature20.7 °F28.4 °F (2:09 pm)8.6 °F (7:29 am)
Dewpoint17.6 °F23 °F (11:30 am)5 °F (7:29 am)
Humidity87.9 %93 % (12:30 am)74 % (2:09 pm)
Barometer29.62 in29.66 in (12:30 am)29.59 in (2:30 pm)
Wind Speed2.1 mph6.9 mph (12:09 pm)
Weather ElementAverage
Visibility9.5 mi
Wind DirectionESE (114.5 °)

Weather ElementTotal
Precipitation---
Heating Degree Days46.5 (Base 65)
Averaged from 71 records on February 13, 2013
WEATHER CONDITIONS BREAKOUT
WIND DIRECTION BREAKOUT
WEATHER BY HOUR - FEBRUARY 13, 2013
[ °C ]   °F
Local TimeTemperatureDewpointHumidityBarometerVisibilityWind DirectionWind SpeedGust SpeedPrecipitationEventsConditions
12:30 AM21.2 °F19.4 °F93 %29.66 in10.0 miWSW (250°)5.8 mphOvercast
12:49 AM23.0 °F19.4 °F86 %29.66 in10.0 miWSW (250°)5.8 mphOvercast
1:09 AM23.0 °F19.4 °F86 %29.65 in10.0 miWest (260°)3.5 mphOvercast
1:30 AM23.0 °F19.4 °F86 %29.65 in10.0 miWest (260°)5.8 mphMostly Cloudy
1:49 AM23.0 °F21.2 °F93 %29.65 in10.0 miWSW (250°)5.8 mphMostly Cloudy
2:09 AM23.0 °F19.4 °F86 %29.65 in10.0 miWest (260°)4.6 mphScattered Clouds
2:30 AM19.4 °F17.6 °F93 %29.65 in10.0 miWest (270°)3.5 mphScattered Clouds
2:49 AM17.6 °F15.8 °F93 %29.64 in10.0 miSW (220°)3.5 mphMostly Cloudy
3:09 AM21.2 °F19.4 °F93 %29.64 in10.0 miSSW (210°)3.5 mphOvercast
3:30 AM19.4 °F17.6 °F93 %29.64 in10.0 miWNW (290°)3.5 mphOvercast
3:49 AM21.2 °F19.4 °F93 %29.63 in10.0 miSW (230°)3.5 mphOvercast
4:09 AM21.2 °F19.4 °F93 %29.63 in10.0 miWest (260°)4.6 mphOvercast
4:29 AM21.2 °F19.4 °F93 %29.63 in10.0 miWSW (240°)4.6 mphMostly Cloudy
4:49 AM19.4 °F17.6 °F93 %29.63 in10.0 miWSW (240°)3.5 mphClear
5:10 AM17.6 °F14.0 °F86 %29.63 in10.0 miWest (260°)3.5 mphClear
5:29 AM19.4 °F17.6 °F93 %29.63 in10.0 miWSW (240°)4.6 mphClear
5:49 AM17.6 °F15.8 °F93 %29.62 in2.5 miWest (270°)3.5 mphClear
6:10 AM14.0 °F12.2 °F93 %29.62 in5.0 miCalmClear
6:29 AM15.8 °F12.2 °F86 %29.62 in2.0 miCalmClear
6:50 AM14.0 °F12.2 °F93 %29.61 in4.0 miCalmClear
7:09 AM10.4 °F8.6 °F92 %29.62 in10.0 miCalmMostly Cloudy
7:29 AM8.6 °F5.0 °F85 %29.62 in10.0 miCalmOvercast
7:50 AM10.4 °F6.8 °F85 %29.62 in10.0 miCalmOvercast
8:09 AM12.2 °F10.4 °F92 %29.62 in10.0 miCalmOvercast
8:29 AM14.0 °F12.2 °F93 %29.61 in10.0 miCalmOvercast
8:50 AM17.6 °F15.8 °F93 %29.61 in10.0 miCalmOvercast
9:09 AM19.4 °F17.6 °F93 %29.61 in10.0 miCalmOvercast
9:29 AM21.2 °F19.4 °F93 %29.61 in10.0 miCalmOvercast
9:50 AM23.0 °F21.2 °F93 %29.61 in10.0 miWest (260°)3.5 mphOvercast
10:09 AM23.0 °F21.2 °F93 %29.61 in10.0 miWest (280°)3.5 mphOvercast
10:29 AM23.0 °F21.2 °F93 %29.61 in10.0 miNW (310°)4.6 mphOvercast
10:49 AM23.0 °F21.2 °F93 %29.62 in10.0 miWNW (290°)3.5 mphOvercast
11:09 AM23.0 °F21.2 °F93 %29.62 in10.0 miCalmOvercast
11:30 AM24.8 °F23.0 °F93 %29.63 in10.0 miNW (310°)5.8 mphOvercast
11:49 AM24.8 °F23.0 °F93 %29.62 in10.0 miNW (310°)3.5 mphOvercast
12:09 PM26.6 °F23.0 °F86 %29.62 in10.0 miWNW (290°)6.9 mphOvercast
12:30 PM26.6 °F21.2 °F80 %29.61 in10.0 miWNW (290°)4.6 mphOvercast
12:49 PM26.6 °F21.2 °F80 %29.61 in10.0 miNNW (330°)3.5 mphOvercast
1:09 PM26.6 °F21.2 °F80 %29.61 in10.0 miNNW (330°)3.5 mphOvercast
1:30 PM26.6 °F21.2 °F80 %29.61 in10.0 miNorth (360°)3.5 mphOvercast
1:49 PM26.6 °F21.2 °F80 %29.61 in10.0 miNNE (30°)5.8 mphOvercast
2:09 PM28.4 °F21.2 °F74 %29.60 in10.0 miNE (40°)5.8 mphOvercast
2:30 PM28.4 °F21.2 °F74 %29.59 in10.0 miNNE (30°)3.5 mphScattered Clouds
2:49 PM28.4 °F23.0 °F80 %29.59 in10.0 miNNE (30°)3.5 mphClear
3:10 PM28.4 °F21.2 °F74 %29.59 in10.0 miNE (40°)3.5 mphScattered Clouds
3:29 PM28.4 °F21.2 °F74 %29.60 in10.0 miCalmMostly Cloudy
3:49 PM28.4 °F21.2 °F74 %29.60 in10.0 miNNE (30°)3.5 mphOvercast
4:09 PM28.4 °F21.2 °F74 %29.60 in10.0 miCalmMostly Cloudy
4:29 PM28.4 °F21.2 °F74 %29.60 in10.0 miCalmMostly Cloudy
4:50 PM28.4 °F21.2 °F74 %29.61 in10.0 miCalmMostly Cloudy
5:09 PM26.6 °F21.2 °F80 %29.61 in10.0 miCalmOvercast
5:29 PM26.6 °F21.2 °F80 %29.61 in10.0 miCalmMostly Cloudy
5:50 PM24.8 °F21.2 °F86 %29.62 in10.0 miCalmScattered Clouds
6:09 PM23.0 °F21.2 °F93 %29.62 in10.0 miCalmClear
6:29 PM23.0 °F21.2 °F93 %29.62 in10.0 miCalmClear
6:50 PM21.2 °F19.4 °F93 %29.62 in10.0 miCalmClear
7:09 PM21.2 °F19.4 °F93 %29.63 in5.0 miCalmClear
7:29 PM19.4 °F17.6 °F93 %29.62 in10.0 miCalmClear
7:50 PM17.6 °F15.8 °F93 %29.63 in10.0 miCalmClear
8:09 PM17.6 °F15.8 °F93 %29.63 in10.0 miCalmClear
8:29 PM15.8 °F12.2 °F86 %29.63 in10.0 miCalmClear
8:49 PM14.0 °F12.2 °F93 %29.63 in5.0 miCalmClear
9:09 PM15.8 °F12.2 °F86 %29.62 in10.0 miCalmClear
9:30 PM14.0 °F12.2 °F93 %29.62 in10.0 miCalmClear
9:49 PM14.0 °F12.2 °F93 %29.63 in10.0 miCalmScattered Clouds
10:09 PM12.2 °F10.4 °F92 %29.63 in10.0 miCalmOvercast
10:30 PM14.0 °F12.2 °F93 %29.63 in10.0 miCalmOvercast
10:49 PM14.0 °F12.2 °F93 %29.64 in10.0 miCalmOvercast
11:10 PM15.8 °F12.2 °F86 %29.64 in10.0 miCalmOvercast
11:29 PM15.8 °F14.0 °F93 %29.64 in10.0 miCalmOvercast
11:49 PM17.6 °F14.0 °F86 %29.64 in10.0 miNW (310°)3.5 mphOvercast
Hourly data recorded from KEVM, located miles away from Cotton, Minnesota







STORIES FROM OUR PARTNERS